DW2380 Paimio FI current weather conditions

sailwx.info

Wind from 360

Air temperature 5.6° C
Dewpoint 4.4° C

Last reported at 2014-Aug-30 23:53 UTC.
Time now 2014-Aug-31 00:37 UTC

Location: N 60°28' E 022°40'.
View on Google Maps.

See reports from other nearby stations

  
Tides and Currents Weather Stations Pressure Air Temp Water Temp Dewpoint Dewpoint Depression Visibility Wind Speed Wind Dir Waves Ship Positions
date/time (UTC)wind fromknots sea level pressurealtimeterstation pressurevisibilityair tempwater tempwave heightnotes
2014-Aug-30 23:53 360 5.6
2014-Aug-30 23:38 013 5.6
2014-Aug-30 23:22 013 5.6
2014-Aug-30 23:07 013 0 gusting 2 5.6
2014-Aug-30 22:52 360 5.6
2014-Aug-30 22:37 360 6.1
2014-Aug-30 22:22 013 6.1
2014-Aug-30 22:07 013 6.1
2014-Aug-30 21:52 013 6.1
2014-Aug-30 21:37 012 6.1
2014-Aug-30 21:22 360 6.1
2014-Aug-30 21:07 360 6.1
2014-Aug-30 20:52 013 6.1
2014-Aug-30 20:36 012 6.7
2014-Aug-30 20:21 013 0 gusting 1 7.2
2014-Aug-30 20:06 012 7.2
2014-Aug-30 19:51 013 7.8
2014-Aug-30 19:36 360 8.3
2014-Aug-30 19:21 360 8.9
2014-Aug-30 19:06 360 9.4
2014-Aug-30 18:51 360 10.0
2014-Aug-30 18:36 360 10.6
2014-Aug-30 18:21 360 11.1
2014-Aug-30 18:06 013 11.7
2014-Aug-30 17:51 360 12.2
2014-Aug-30 17:36 013 12.8
2014-Aug-30 17:19 013 13.3
2014-Aug-30 17:04 360 0 gusting 3 13.3
2014-Aug-30 16:49 011 13.9
2014-Aug-30 16:34 011 13.9
2014-Aug-30 16:19 017 14.4
2014-Aug-30 16:04 012 14.4
2014-Aug-30 15:48 360 0 gusting 4 14.4
2014-Aug-30 15:34 011 0 gusting 3 15.0
2014-Aug-30 15:18 360 0 gusting 6 15.0
2014-Aug-30 15:03 360 3 gusting 6 15.0
2014-Aug-30 14:48 360 1 gusting 6 15.0
2014-Aug-30 14:33 009 15.0
2014-Aug-30 14:18 360 1 gusting 5 15.0
2014-Aug-30 14:03 009 2 gusting 6 15.6
2014-Aug-30 13:48 360 2 gusting 9 15.6
2014-Aug-30 13:32 360 4 gusting 7 16.1
2014-Aug-30 13:17 360 2 gusting 6 16.1
2014-Aug-30 13:02 360 3 gusting 6 16.1
2014-Aug-30 12:47 360 3 gusting 7 16.7
2014-Aug-30 12:32 360 2 gusting 9 15.6
2014-Aug-30 12:16 360 0 gusting 6 15.6
2014-Aug-30 12:01 360 4 gusting 8 15.6
2014-Aug-30 11:46 360 4 gusting 7 16.1
2014-Aug-30 11:31 360 4 gusting 7 16.1
2014-Aug-30 11:16 360 3 gusting 9 16.1
2014-Aug-30 11:01 360 4 gusting 8 15.6
2014-Aug-30 10:46 360 4 gusting 8 15.6
2014-Aug-30 10:31 360 0 gusting 6 15.6
2014-Aug-30 10:16 360 2 gusting 6 16.7
2014-Aug-30 10:01 020 0 gusting 6 17.2
2014-Aug-30 09:46 024 3 gusting 7 17.2
2014-Aug-30 09:31 360 16.1
2014-Aug-30 09:16 360 2 gusting 6 16.1
2014-Aug-30 08:59 360 2 gusting 6 15.0
2014-Aug-30 08:44 013 15.0
2014-Aug-30 08:29 360 1 gusting 6 15.0
2014-Aug-30 08:14 360 0 gusting 6 15.0
2014-Aug-30 07:59 360 4 gusting 8 15.0
2014-Aug-30 07:43 360 0 gusting 6 14.4
2014-Aug-30 07:29 016 1 gusting 5 13.9
2014-Aug-30 07:13 016 3 gusting 6 12.8
2014-Aug-30 06:58 015 0 gusting 6 12.2
2014-Aug-30 06:43 012 1 gusting 5 11.1
2014-Aug-30 06:28 015 0 gusting 3 10.0
2014-Aug-30 06:12 360 1 gusting 4 10.0
2014-Aug-30 05:57 360 1 gusting 3 9.4
2014-Aug-30 05:42 360 8.9
2014-Aug-30 05:27 360 0 gusting 3 8.3
2014-Aug-30 05:12 360 0 gusting 3 8.3
2014-Aug-30 04:57 360 7.8
2014-Aug-30 04:42 360 7.8
2014-Aug-30 04:27 360 7.2
2014-Aug-30 04:12 360 0 gusting 3 7.2
2014-Aug-30 03:57 360 7.2
2014-Aug-30 03:42 360 7.2
2014-Aug-30 03:27 360 7.2
2014-Aug-30 03:12 360 1 gusting 4 6.7
2014-Aug-30 02:57 360 6.1
2014-Aug-30 02:42 360 6.1
2014-Aug-30 02:27 360 6.1
2014-Aug-30 02:12 360 6.7
2014-Aug-30 01:57 360 6.7
2014-Aug-30 01:42 360 6.7
2014-Aug-30 01:27 360 6.7
2014-Aug-30 01:12 360 7.2
2014-Aug-30 00:57 360 7.2
2014-Aug-30 00:42 360 7.8
2014-Aug-30 00:27 360 7.8
2014-Aug-30 00:12 360 7.8
2014-Aug-29 23:57 360 7.8
2014-Aug-29 23:42 360 8.3
2014-Aug-29 23:27 360 8.3
2014-Aug-29 22:56 360 9.4
2014-Aug-29 22:41 360 9.4
2014-Aug-29 22:26 360 10.0
2014-Aug-29 22:11 360 10.6
2014-Aug-29 21:41 360 11.1
2014-Aug-29 21:26 360 0 gusting 4 11.1
2014-Aug-29 21:11 360 11.7
2014-Aug-29 20:56 360 0 gusting 5 12.2
2014-Aug-29 20:41 360 0 gusting 3 12.2
2014-Aug-29 20:26 360 12.2
2014-Aug-29 20:11 360 1 gusting 5 12.2
2014-Aug-29 19:56 360 2 gusting 6 12.2
2014-Aug-29 19:41 360 2 gusting 6 12.2
2014-Aug-29 19:26 360 1 gusting 5 12.8
2014-Aug-29 19:11 360 0 gusting 4 12.8
2014-Aug-29 18:54 360 0 gusting 4 12.8
2014-Aug-29 18:39 360 0 gusting 4 12.8
2014-Aug-29 18:24 360 0 gusting 5 13.3
2014-Aug-29 18:09 360 0 gusting 4 13.3
2014-Aug-29 17:54 360 2 gusting 6 13.3
2014-Aug-29 17:39 360 13.3
2014-Aug-29 17:23 360 13.9
2014-Aug-29 17:08 360 1 gusting 6 13.9
2014-Aug-29 16:53 360 1 gusting 5 13.9
2014-Aug-29 16:38 360 1 gusting 6 14.4
2014-Aug-29 16:23 360 3 gusting 7 14.4
2014-Aug-29 16:08 360 5 gusting 9 14.4
2014-Aug-29 15:52 360 4 gusting 8 14.4
2014-Aug-29 15:37 360 4 gusting 9 15.0
2014-Aug-29 15:22 360 3 gusting 8 15.6
2014-Aug-29 15:07 360 4 gusting 8 16.1
2014-Aug-29 14:52 360 0 gusting 9 16.1
2014-Aug-29 14:37 360 3 gusting 8 16.7
2014-Aug-29 14:22 360 5 gusting 8 16.1
2014-Aug-29 14:06 360 4 gusting 9 15.6
2014-Aug-29 13:51 360 5 gusting 10 15.0
2014-Aug-29 13:36 360 3 gusting 7 15.0
2014-Aug-29 13:21 360 5 gusting 9 15.6
2014-Aug-29 13:06 360 2 gusting 8 15.6
2014-Aug-29 12:51 360 2 gusting 10 15.6
2014-Aug-29 12:36 360 3 gusting 11 15.0
2014-Aug-29 12:21 360 5 gusting 10 14.4
2014-Aug-29 12:06 360 6 gusting 13 14.4
2014-Aug-29 11:51 360 5 gusting 9 14.4
2014-Aug-29 11:37 360 3 gusting 9 14.4
2014-Aug-29 11:21 360 5 gusting 11 14.4
2014-Aug-29 11:04 360 4 gusting 10 14.4
2014-Aug-29 10:49 360 3 gusting 9 14.4
2014-Aug-29 10:34 360 5 gusting 11 13.9
2014-Aug-29 10:19 360 5 gusting 13 13.9
2014-Aug-29 10:04 360 3 gusting 7 13.9
2014-Aug-29 09:49 360 4 gusting 10 13.9
2014-Aug-29 09:33 360 5 gusting 10 13.9
2014-Aug-29 09:18 360 4 gusting 8 13.3
2014-Aug-29 09:03 360 3 gusting 9 13.3
2014-Aug-29 08:48 360 4 gusting 9 13.3
2014-Aug-29 08:33 360 5 gusting 11 13.9
2014-Aug-29 08:18 360 3 gusting 7 13.3
2014-Aug-29 08:03 360 3 gusting 11 13.3
2014-Aug-29 07:47 360 5 gusting 9 13.3
2014-Aug-29 07:32 360 5 gusting 10 12.8
2014-Aug-29 07:17 360 5 gusting 9 12.8
2014-Aug-29 07:02 360 3 gusting 10 12.8
2014-Aug-29 06:47 360 3 gusting 9 12.2
2014-Aug-29 06:32 360 3 gusting 7 12.2
2014-Aug-29 06:16 360 3 gusting 7 11.7
2014-Aug-29 06:01 360 0 gusting 6 11.7
2014-Aug-29 05:46 360 1 gusting 5 11.1
2014-Aug-29 05:31 360 1 gusting 5 11.1
2014-Aug-29 05:16 360 1 gusting 4 11.1
2014-Aug-29 05:01 360 10.6
2014-Aug-29 04:46 360 10.6
2014-Aug-29 04:31 360 1 gusting 3 10.6
2014-Aug-29 04:16 360 1 gusting 4 10.6
2014-Aug-29 04:01 360 10.0
2014-Aug-29 03:46 360 10.0
2014-Aug-29 03:29 360 0 gusting 3 10.6
2014-Aug-29 03:15 360 1 gusting 3 10.6
2014-Aug-29 03:00 360 2 gusting 4 10.6
2014-Aug-29 02:45 360 10.6
2014-Aug-29 02:30 360 10.6
2014-Aug-29 02:15 360 10.6
2014-Aug-29 02:00 360 0 gusting 5 10.6
2014-Aug-29 01:45 360 4 gusting 10 10.6
2014-Aug-29 01:30 360 5 gusting 8 10.6
2014-Aug-29 01:15 360 2 gusting 6 10.0
2014-Aug-29 01:00 360 2 gusting 6 9.4
2014-Aug-29 00:45 360 9.4
2014-Aug-29 00:30 360 9.4
2014-Aug-29 00:15 360 1 gusting 6 9.4